Regional Weather Roundup
Issued by NWS

Home | Current Version | Previous Version | Graphics & Text | Print | Product List | Glossary On
Versions: 1 2 3 4 5 6 7 8 9 10 11 12 13 14 15 16 17 18 19 20 21 22 23 24 25 26 27 28 29 30 31 32 33 34 35 36 37 38 39 40 41 42 43 44 45 46 47 48 49 50
000
ASUS45 KCYS 021710
RWRWY

WYOMING REGIONAL WEATHER ROUNDUP
NATIONAL WEATHER SERVICE CHEYENNE WY
1100 AM MDT WED SEP 02 2015

NOTE:  "FAIR" INDICATES FEW OR NO CLOUDS BELOW 12,000 FEET
WITH NO SIGNIFICANT WEATHER AND/OR OBSTRUCTIONS TO VISIBILITY.

WYZ001-021800-
YELLOWSTONE NATIONAL PARK

CITY           SKY/WX    TMP DP  RH WIND       PRES   REMARKS
LK YELLOWSTONE   N/A     67  35  30 VRB3      30.16S
W YELLOWSTONE  NOT AVBL

$$
WYZ002>013-054>058-071-098>099-021800-
NORTHERN WYOMING

CITY           SKY/WX    TMP DP  RH WIND       PRES   REMARKS
JACKSON        FAIR      75  36  23 S10G18    30.09F
CODY           FAIR      82  36  18 SW7       29.93S
GREYBULL       FAIR      86  41  20 SE13G20   29.85S
WORLAND        FAIR      85  44  23 VRB3      29.88F
SHERIDAN       FAIR      92  40  16 SW15      29.84F
BUFFALO        FAIR      89  34  14 SW14      29.95S
GILLETTE         N/A     87  43  21 SW12      29.91S
HULETT         FAIR      86  43  22 S9        29.93S
NEWCASTLE      FAIR      81  37  21 CALM      29.95F

$$
WYZ014>020-022>026-101>103-021800-
CENTRAL WYOMING

CITY           SKY/WX    TMP DP  RH WIND       PRES   REMARKS
BIG PINEY      FAIR      77  32  19 W20G28    30.16F
PINEDALE       FAIR      72  34  25 SW8       30.18F
DUBOIS         FAIR      72  30  21 W18G26    30.13F
LANDER         FAIR      85  34  16 SW12      30.01F
RIVERTON       FAIR      80  37  21 SW7       30.02F
CASPER         FAIR      82  37  20 SW24G33   30.05S
DOUGLAS        FAIR      88  37  16 W20G26    30.01F

$$
WYZ021-027>030-104>119-021800-
SOUTHERN WYOMING

CITY           SKY/WX    TMP DP  RH WIND       PRES   REMARKS
EVANSTON       FAIR      73  40  30 SW22G32   30.20S
KEMMERER       FAIR      73  34  23 SW22G28   30.20S
FORT BRIDGER   SUNNY     77  37  24 SW23G32   30.22S
ROCK SPRINGS   FAIR      72  42  34 W9        30.20S
DIXON          FAIR      76  41  28 S8        30.25S
RAWLINS        FAIR      77  37  23 SW20G29   30.21S
SARATOGA       PTSUNNY   73  41  31 E7        30.25S
LARAMIE        FAIR      74  39  28 NW9G20    30.23S
CHEYENNE       FAIR      83  38  20 W10G21    30.14S
TORRINGTON     FAIR      84  45  25 W6        29.98S
PINE BLUFFS    FAIR      86  36  16 N10G16    30.07F

$$



USA.gov is the U.S. government's official web portal to all federal, state and local government web resources and services.